Simultaneous Nadir Overpasses (SNOs) Predictions

Prediction of SNOs between AQUA and METOP-C Satellite Orbit:

Table of predicted SNOs for the next 14.0 days since TLE Epoch: 10/22/2022
Index Date (AQUA) Time (AQUA) Lat,Lon (AQUA) SZA (AQUA ) Date (METOP-C) Time (METOP-C) Lat,Lon (METOP-C) SZA (METOP-C ) Distance(km) Time Diff (sec)
1 10/22/2022 13:07:48 -74.01, 158.13 94.92 10/22/2022 13:06:47 -74.02, 158.02 94.91 3.54 61
2 10/22/2022 13:57:17 74.12, -34.47 85.21 10/22/2022 13:57:24 74.10, -34.44 85.19 2.50 7
3 10/22/2022 14:46:49 -74.49, 132.29 94.41 10/22/2022 14:47:58 -74.54, 134.01 94.37 51.18 69
4 10/25/2022 07:51:41 74.01, 57.19 86.05 10/25/2022 07:50:28 74.04, 57.17 86.09 3.56 73
5 10/25/2022 08:41:07 -74.08,-135.31 93.87 10/25/2022 08:41:10 -74.10,-135.38 93.85 3.04 3
6 10/25/2022 09:30:36 74.18, 32.07 86.25 10/25/2022 09:31:47 74.17, 32.15 86.24 2.69 71
7 10/28/2022 02:35:29 -73.95, -43.61 93.07 10/28/2022 02:34:16 -73.89, -44.13 93.12 17.15 73
8 10/28/2022 03:24:59 74.11, 123.65 87.11 10/28/2022 03:24:50 74.12, 123.75 87.12 2.99 9
9 10/28/2022 04:14:25 -74.17, -68.84 92.82 10/28/2022 04:15:32 -74.17, -68.79 92.82 1.62 67
10 10/30/2022 21:19:13 73.55,-143.69 87.46 10/30/2022 21:18:06 73.45,-146.08 87.37 76.25 67
11 10/30/2022 22:08:48 -74.08, 22.79 92.01 10/30/2022 22:08:36 -74.11, 22.80 91.98 3.17 12
12 10/30/2022 22:58:16 74.14,-169.72 88.07 10/30/2022 22:59:14 74.13,-169.80 88.06 2.89 58
13 11/02/2022 16:02:59 -73.40, 115.70 91.81 11/02/2022 16:01:54 -73.35, 112.75 91.85 94.29 65
14 11/02/2022 16:52:39 74.09, -78.17 88.90 11/02/2022 16:52:17 74.11, -78.11 88.92 3.21 22
15 11/02/2022 17:42:05 -74.14, 89.34 91.04 11/02/2022 17:42:59 -74.17, 89.36 91.02 2.85 54



Historial Predications of SNOs between AQUA and METOP-C
